CAPE
1598 1772 1920 1756 2222 2472 2398 2573 2872 2922 3067 2547 2895 3028 2991 3007 3598 3960 3733 3019 3409 3084 2502 2762 3344 3593 3114 2737 2652 2498 2355 2396 2330 2014 2035 2420 3438 3297 3177 3299 3086 2777 2352
2397 2846 1797 1442 1808 2130 2396 2268 2779 3074 3171 3128 2902 3069 3111 3201 3324 3838 3840 3301 3553 3483 3148 3185 3202 2823 3508 3603 3108 3295 2992 3148 2959 4161 3651 2796 3735 3189 3074 3047 2760 2481 2400
2348 1791 1692 1707 1611 1605 1752 2073 2676 2947 3193 2972 3137 3085 3084 3112 3056 3361 3681 3664 3720 3597 3497 3113 3117 3279 3546 3311 3305 2991 2703 2567 2908 2426 2577 2302 2456 2452 2745 3152 3132 3119 2416
1546 1599 1930 1517 1570 1611 1908 2411 3272 3342 2982 2934 2948 3156 3245 3291 3219 3182 3281 3501 3681 3659 3658 3649 3558 3515 3728 3883 3834 3729 3661 3439 3204 2718 2178 1866 2173 2625 2466 2723 2316 2002 2095
1652 1570 2027 2107 2226 2040 2460 2232 2346 3243 3333 2727 2895 3001 3056 2980 2795 3016 3099 3195 3383 3517 3544 3598 3555 3315 3011 3100 3065 4023 4794 3280 2088 1509 1354 1421 1276 1301 1830 1904 2106 2007 2653
2222 1591 2171 2815 2931 2907 2757 2747 3258 2843 3490 3095 2945 2575 2625 2441 1780 1758 1871 2398 2521 2850 3174 3314 3238 2731 2691 2552 2404 2283 2125 3143 4468 2526 1591 1431 3217 2841 1833 2159 2345 2434 2290
1842 1900 1827 2614 2296 2680 2346 2724 3034 3229 3391 3559 3011 2688 3044 3060 1943 1713 1633 2583 2437 2303 2913 2672 2476 1987 1877 2108 1978 2165 2243 2127 2033 2656 3072 3406 3596 3969 4055 3725 3766 2911 2641
2079 2088 2064 2120 2141 2553 2599 2680 2878 2484 2985 3188 2858 3327 3272 2925 1839 1720 1824 2392 2530 2943 2601 2624 3239 3417 3294 2781 2897 2067 2094 2094 2121 1989 2387 2892 2935 2942 3757 3431 3028 2072 1334
1641 1896 1818 2187 2169 2050 2146 2231 2200 2210 2314 2369 2499 2763 3115 3272 1918 1375 1330 1892 1756 1960 2169 3078 2721 3081 2522 2112 2514 2899 2781 2408 1952 1834 1665 1704 1725 1704 1683 1686 1557 1501 1371
966 633 782 959 1440 1986 1952 2095 2390 2658 2533 2424 2463 2526 2403 2740 2236 1867 1395 1520 1709 1842 2729 3086 1950 2047 2284 2011 2352 2626 2773 2772 2868 3003 3279 2673 2558 2401 2142 1817 1713 1905 1365
357 120 257 334 576 1284 1705 1901 2378 2614 2947 3023 3320 3316 3751 3311 3317 2391 1996 1971 2135 2287 2317 2351 2371 1920 1800 1735 1637 2189 2416 2581 2549 2816 2906 3265 3311 3052 3014 2074 1712 1250 1494
756 719 578 556 346 686 885 991 1637 2041 2490 2655 2962 3115 3035 3927 3129 2842 2591 2318 2019 2426 2604 2620 2583 2138 1948 1804 1745 1664 1553 1629 1721 2073 2327 2586 2690 2677 3300 2712 1702 1216 670
375 383 303 372 599 764 894 1120 1290 1491 1723 2451 2348 2797 2858 2748 3441 2796 2681 2290 1924 1720 2262 2012 1891 1829 1808 1742 1683 1557 1601 1776 1810 2182 2638 2243 2158 1784 2012 1530 1564 842 508
119 116 99 149 136 251 548 854 1180 1435 1544 1609 1917 2105 2073 2639 2704 2915 3034 2860 2935 2017 1685 1409 1494 1613 1478 1586 1730 1834 1976 2235 2616 3010 2815 2213 2030 1714 1221 1054 742 633 295
14 22 17 3 40 9 32 80 154 541 980 1321 1550 1649 1436 1412 1584 1959 2304 2434 2259 2158 2205 2327 2668 2326 2340 2753 3193 3319 3273 3002 2622 2297 1999 1778 1626 995 597 341 319 463 179
0 0 0 3 0 2 17 30 0 7 54 225 347 502 731 863 906 1001 1089 1361 1653 1881 2028 1795 2034 2148 1597 2434 3388 3751 3827 2545 2414 2181 2306 1545 1315 975 522 540 550 291 53
0 0 0 0 0 0 0 0 0 0 0 10 18 61 148 344 494 664 816 1014 1147 1423 1729 1746 1523 1643 2276 3029 3279 3183 3322 3761 3768 3086 2361 1842 1287 1062 345 769 490 161 32
0 0 0 0 0 0 0 0 0 0 0 0 0 0 25 81 153 253 405 535 782 992 1204 1285 1269 1288 1426 1729 1946 1980 2388 3074 3388 2930 2525 2016 1701 937 917 893 447 114 18
0 0 0 0 0 0 0 0 0 0 0 0 0 0 0 0 3 78 182 301 424 571 653 776 822 809 774 798 840 841 892 2117 2154 2608 2335 1842 1417 1204 1012 696 442 301 59
0 0 0 0 0 0 0 0 0 0 0 0 0 0 0 0 0 0 0 33 82 93 157 185 190 238 302 446 507 777 1190 1234 1346 1418 1429 1382 1519 1206 823 641 371 295 99
0 0 0 0 0 0 0 0 0 0 0 0 0 0 0 0 0 0 0 0 0 1 19 166 244 362 525 410 473 783 778 945 754 843 786 915 1278 1008 561 207 336 274 41
0 0 0 0 0 0 0 0 0 0 0 0 0 0 0 0 0 0 0 0 0 0 0 0 52 134 381 455 476 653 747 824 862 835 957 950 844 714 362 398 364 117 138
0 0 0 0 0 0 0 0 0 0 0 0 0 0 0 0 0 0 0 0 0 0 0 0 0 0 269 428 521 492 649 676 682 594 484 508 570 452 310 255 186 186 208
9 0 0 0 0 0 0 0 0 0 0 0 0 0 0 0 0 0 0 0 0 0 0 0 0 0 0 39 227 293 462 596 514 413 382 343 333 277 225 162 248 269 181
0 0 0 0 0 0 0 0 0 0 0 0 0 0 0 0 0 0 0 0 0 0 0 0 0 0 0 0 0 0 16 33 106 222 326 431 256 188 174 196 195 96 26
1 0 1 0 0 0 0 0 0 0 0 0 0 0 0 0 0 0 0 0 0 0 0 0 0 0 0 0 0 0 0 1 26 44 66 225 210 331 403 333 233 202 170
CIN
-37 -23 -20 -20 -1 -1 0 -1 0 -1 -8 -10 -1 0 0 0 0 0 0 0 0 -3 -32 -28 -10 -1 -2 -5 -11 -19 -40 -42 -66 -95 -67 -40 -16 -35 -34 -6 -7 -16 -38
-34 -5 -26 -39 -7 0 -3 -2 -1 -2 -1 -10 -6 -1 0 0 0 0 0 0 0 0 0 -2 -4 -7 0 0 -1 -1 -2 -2 -5 0 -12 -45 -6 -34 -57 -47 -52 -41 -36
-43 -47 -39 -27 -17 -19 -14 -3 -1 -1 -2 0 -2 -1 -2 -1 0 0 0 0 0 0 0 0 -1 0 0 0 0 0 0 -2 0 -8 -34 -48 -59 -48 -36 -17 -9 -3 -33
-74 -61 -52 -50 -39 -25 -16 -6 0 -1 -2 -5 -2 -2 -2 0 0 0 0 0 0 0 0 0 0 0 0 0 0 0 0 0 -1 -6 -32 -35 -48 -31 -17 -4 0 0 0
-80 -77 -51 -69 -35 -24 -3 -14 -10 -1 -5 -7 -3 -1 -1 -1 0 -1 0 0 0 0 0 0 0 -4 -16 -17 -2 0 0 0 -16 -25 -38 -40 -54 -49 -17 -23 -4 0 0
-45 -90 -31 -20 -21 -24 -22 -18 -8 -9 0 0 -1 -2 -1 0 -3 -12 -17 -1 -1 0 0 0 0 -6 -25 -53 -74 -93 -90 -10 0 -12 -47 -55 -3 -6 -15 0 0 0 0
-74 -54 -42 -9 -24 -16 -44 -37 -28 -15 -3 -1 -3 -6 -3 -5 -44 -58 -76 -21 -14 -7 -1 0 -6 -13 -29 -28 -53 -74 -96 -111 -113 -36 -7 -12 -1 0 0 0 0 0 0
-51 -48 -31 -13 -6 -6 -2 -2 0 -14 -2 -6 -16 -7 -8 -31 -94 -102 -104 -62 -22 -11 -19 -22 -2 -1 -11 -42 -29 -42 -48 -48 -72 -65 -64 -24 -9 0 0 0 0 -3 -28
-51 -44 -24 -2 -8 -7 -7 -6 -5 -4 -13 -9 -18 -22 -17 -23 -103 -143 -155 -69 -62 -63 -65 -24 -38 -22 -78 -126 -62 -13 -14 -42 -76 -77 -74 -63 -64 -61 -50 -20 -18 -1 -14
-67 -112 -63 -14 -59 -14 -30 -19 0 -3 -14 -13 -24 -26 -29 -30 -83 -137 -163 -95 -48 -50 -32 -18 -93 -113 -98 -111 -67 -17 -2 -8 -3 0 0 -1 -10 -23 -37 -25 -11 0 -2
-155 -276 -134 -58 -44 -50 -44 -25 -10 -17 -4 -2 -4 -8 0 -6 -17 -72 -124 -105 -52 -24 -9 -4 0 -13 -55 -82 -89 -62 -28 -18 -7 -1 0 0 0 0 -1 0 -19 -31 -2
-44 -50 -61 -89 -213 -7 -103 -74 -67 -55 -21 -11 -8 -1 -2 0 -13 -30 -57 -83 -92 -39 -19 -5 -2 -5 -16 -45 -51 -73 -71 -30 -27 -17 0 0 -2 -2 0 -1 -12 -22 -33
-104 -114 -164 -141 -119 -64 -93 -92 -88 -90 -77 -30 -20 -12 -7 -7 0 -3 -16 -44 -72 -79 -40 -39 -55 -64 -55 -43 -56 -80 -40 -28 -22 -3 0 -14 -13 -22 -7 -24 -12 -33 -30
-216 -192 -190 -136 -175 -166 -137 -104 -87 -46 -59 -42 -19 -15 -35 0 0 0 0 0 -5 -69 -69 -99 -92 -69 -93 -73 -38 -35 -17 -31 -7 -1 0 -3 -2 -9 -35 -47 -51 -32 -28
-266 -253 -25 -39 -274 -322 -330 -306 -257 -144 -96 -59 -22 -20 -41 -30 -15 -2 0 0 0 0 -5 -19 -14 -54 -8 0 0 -1 -1 -1 -6 -9 -13 -21 -21 -104 -158 -163 -127 -43 -29
0 0 0 -215 -133 -85 -303 -255 0 -106 -304 -258 -222 -171 -136 -113 -99 -69 -65 -25 -5 -10 -16 -40 -42 -55 -133 -3 0 0 0 -2 -11 -14 -4 -63 -46 -90 -181 -97 -39 -53 -49
0 0 0 0 0 0 0 0 0 0 -9 -323 -334 -303 -268 -232 -189 -132 -100 -46 -19 -12 -10 -20 -41 -78 -32 0 0 0 0 0 0 0 0 -7 -21 -67 -220 -55 -11 -86 -82
0 0 0 0 0 0 0 0 0 0 0 0 -1 0 -217 -271 -232 -211 -201 -137 -58 -7 -9 -19 -28 -38 -38 -7 0 0 -1 0 -1 -3 0 0 -5 -37 -64 -51 -22 -51 -55
0 0 0 0 0 0 0 0 0 0 0 0 0 0 0 0 -262 -257 -199 -144 -97 -40 -30 -20 -24 -50 -59 -71 -84 -83 -91 -2 -6 0 0 -34 -84 -55 -52 -56 -47 -33 -53
0 0 0 0 0 0 0 0 0 0 0 0 0 0 0 0 0 0 0 -279 -210 -200 -181 -130 -150 -172 -156 -107 -103 -67 -29 -34 -33 -34 -34 -35 -58 -79 -76 -69 -79 -54 -58
0 0 0 0 0 0 0 0 0 0 0 0 0 0 0 0 0 0 0 0 0 -200 -225 -106 -54 -40 -25 -66 -73 -28 -48 -32 -68 -73 -87 -85 -62 -71 -61 -146 -76 -65 -85
0 0 0 0 0 0 0 0 0 0 0 0 0 0 0 0 0 0 0 0 0 0 0 -25 -107 -64 -19 -28 -42 -20 -13 -7 -10 -30 -26 -44 -61 -56 -115 -94 -70 -125 -74
0 0 0 0 0 0 0 0 0 0 0 0 0 0 0 0 0 0 0 0 0 0 0 0 0 0 -8 -3 -4 -15 -3 -2 -4 -7 -23 -53 -46 -44 -71 -108 -108 -102 -66
-1 0 0 0 0 0 0 0 0 0 0 0 0 0 0 0 0 0 0 0 0 0 0 0 0 0 0 -7 -11 -12 -3 0 -1 -12 -10 -30 -34 -31 -28 -81 -60 -46 -52
0 -1 0 0 0 0 0 0 0 0 0 0 0 0 0 0 0 0 0 0 0 0 0 0 0 0 0 0 0 0 -79 -107 -34 -6 -4 0 -11 -24 -23 -16 -11 -14 -12
-14 0 -1 0 0 0 0 0 0 0 0 0 0 0 0 0 0 0 0 0 0 0 0 0 0 0 0 0 0 0 0 -45 -66 -51 -30 -1 -7 -1 0 -2 -5 -4 -1
Wind_Speed
14 17 18 17 18 16 18 19 18 18 19 18 16 14 13 12 13 13 14 16 13 16 16 17 18 21 21 24 25 26 26 28 25 24 25 26 24 24 24 22 23 24 31
17 16 15 18 19 17 17 19 20 20 20 20 20 18 16 15 16 16 16 18 17 16 16 18 20 23 26 25 26 27 26 26 24 18 21 20 21 20 19 20 26 29 31
18 16 17 15 16 16 16 20 22 23 21 22 22 21 20 18 18 20 21 21 20 19 19 20 21 23 26 27 28 27 27 26 25 20 15 18 15 16 18 22 25 27 31
14 16 17 15 17 17 19 21 25 25 23 24 24 24 22 19 17 18 20 21 22 21 21 21 22 23 23 24 24 24 24 24 24 21 17 16 20 21 25 24 23 28 27
5 5 12 18 19 18 22 22 24 25 26 24 26 25 24 21 19 16 16 16 17 18 19 19 19 19 21 20 21 24 23 21 19 19 17 18 19 21 21 22 25 25 28
17 8 11 13 14 17 18 23 23 24 27 27 27 24 24 25 23 25 21 19 19 18 18 17 17 20 23 25 25 23 21 19 18 21 18 18 17 20 22 23 22 24 25
21 17 18 17 18 18 19 20 19 23 26 24 23 23 21 20 25 30 29 24 21 20 20 19 17 20 24 19 26 31 29 30 30 25 21 20 19 20 23 24 26 30 34
32 31 26 25 23 22 23 23 22 21 20 28 25 22 21 19 22 24 26 21 20 18 17 17 18 17 19 20 20 20 18 19 23 31 28 22 22 25 29 31 32 35 38
39 44 38 32 26 23 23 23 23 22 25 20 25 22 20 19 23 22 25 21 20 17 17 19 18 16 16 24 23 21 19 15 17 23 24 23 25 29 32 31 32 36 38
44 53 54 39 35 26 24 23 9 12 11 22 9 12 15 17 24 27 30 26 23 23 21 21 23 18 19 26 24 20 16 13 12 11 16 27 27 29 38 37 33 42 48
50 47 48 30 34 29 26 23 19 17 13 20 25 24 18 17 18 25 27 23 21 22 21 21 21 28 26 23 25 19 13 15 13 14 18 24 28 30 32 40 44 49 53
52 50 46 39 42 20 31 29 26 20 20 18 21 18 18 19 19 21 27 23 18 17 18 22 23 38 30 25 23 20 18 18 18 19 21 23 22 24 27 37 47 54 53
53 48 43 44 37 27 27 32 38 30 34 31 24 24 25 29 24 20 24 24 20 20 17 21 22 25 29 23 20 16 21 18 17 15 13 16 24 24 35 44 49 53 52
56 50 nan 48 43 42 32 36 30 30 34 34 36 33 32 30 31 38 37 30 22 26 21 19 20 12 23 17 17 16 18 14 14 14 17 24 27 33 41 50 52 53 53
nan nan nan nan nan nan nan nan 40 39 40 39 37 35 35 34 36 33 31 33 30 26 23 22 21 24 22 25 18 17 17 18 20 22 26 30 30 39 43 51 46 49 53
nan nan nan nan nan nan nan nan nan nan nan 48 46 43 44 39 36 32 34 28 26 25 27 22 26 28 25 11 21 21 23 24 23 28 32 29 30 40 44 50 47 48 nan
nan nan nan nan nan nan nan nan nan nan nan nan nan nan 43 38 36 34 38 37 33 38 29 26 26 27 27 26 25 23 25 27 27 32 34 35 36 41 46 48 51 47 nan
nan nan nan nan nan nan nan nan nan nan nan nan nan nan nan nan 45 44 50 43 44 39 38 36 35 34 33 33 33 33 32 35 34 36 39 40 39 37 43 47 51 50 nan
nan nan nan nan nan nan nan nan nan nan nan nan nan nan nan nan nan nan 56 57 56 52 50 46 46 42 39 39 40 39 36 38 40 40 42 50 50 42 42 45 50 51 nan
nan nan nan nan nan nan nan nan nan nan nan nan nan nan nan nan nan nan nan nan nan nan 63 60 60 57 48 46 43 43 40 42 46 46 51 52 53 51 45 46 47 49 nan
nan nan nan nan nan nan nan nan nan nan nan nan nan nan nan nan nan nan nan nan nan nan nan 65 63 56 50 47 46 49 49 46 48 51 51 52 51 50 47 45 45 46 nan
nan nan nan nan nan nan nan nan nan nan nan nan nan nan nan nan nan nan nan nan nan nan nan nan nan 51 48 48 48 51 54 53 51 50 49 51 49 46 47 47 44 45 46
nan nan nan nan nan nan nan nan nan nan nan nan nan nan nan nan nan nan nan nan nan nan nan nan nan nan 45 41 45 45 47 52 52 50 46 49 49 48 47 47 43 44 44
nan nan nan nan nan nan nan nan nan nan nan nan nan nan nan nan nan nan nan nan nan nan nan nan nan nan nan nan 40 39 39 38 37 42 42 41 45 46 45 45 43 42 42
nan nan nan nan nan nan nan nan nan nan nan nan nan nan nan nan nan nan nan nan nan nan nan nan nan nan nan nan nan nan nan nan 41 38 39 37 35 35 39 42 45 nan nan
nan nan nan nan nan nan nan nan nan nan nan nan nan nan nan nan nan nan nan nan nan nan nan nan nan nan nan nan nan nan nan nan nan nan nan 44 43 41 40 40 40 44 42
Wind_Direction
275 258 250 247 248 231 224 229 218 221 236 231 230 228 233 230 229 228 221 228 249 255 262 274 279 280 282 287 296 302 306 310 316 316 314 323 329 340 345 346 353 357 355
268 262 259 251 253 252 233 237 235 229 234 241 238 237 234 236 236 234 227 226 242 248 258 266 272 278 288 289 290 296 298 299 311 324 322 330 338 340 345 350 348 346 347
264 271 268 265 266 259 252 242 241 240 242 239 242 243 243 241 240 238 231 229 233 239 248 257 266 276 283 283 285 293 302 312 319 330 334 334 341 335 338 344 343 339 340
279 270 262 268 264 259 251 249 246 242 242 248 247 246 248 249 250 252 248 246 245 248 251 257 265 274 283 291 301 307 312 321 328 336 347 340 335 334 342 340 337 336 333
291 297 265 257 260 259 263 262 261 258 251 249 252 251 253 252 251 265 270 267 265 264 267 272 281 287 289 298 302 309 308 324 332 326 331 333 337 336 325 331 337 337 329
250 241 259 266 264 269 268 264 262 262 260 255 256 257 258 257 260 269 264 260 268 272 274 279 282 295 306 314 322 323 322 319 325 316 325 337 336 336 328 328 326 320 322
264 255 244 255 262 263 267 271 275 268 257 259 261 261 261 262 265 274 278 270 266 268 270 273 279 284 293 299 313 319 322 325 332 329 336 344 336 329 322 324 328 323 326
256 258 251 243 255 254 266 261 281 273 284 255 251 255 253 256 264 273 281 272 264 270 277 281 280 282 290 295 293 290 297 302 320 321 333 344 336 329 322 324 321 320 319
255 247 242 245 251 256 277 279 289 249 251 264 240 235 243 240 257 268 269 263 269 271 273 277 280 280 285 289 286 288 294 316 311 321 339 340 324 321 316 320 325 326 324
254 255 252 206 238 248 255 263 273 261 240 217 227 247 242 242 256 269 272 266 273 274 274 276 287 292 280 273 277 287 308 316 299 303 307 310 320 324 330 335 336 332 323
262 265 269 257 229 230 246 251 241 241 219 227 227 241 252 253 250 273 282 273 273 274 277 279 281 296 299 296 297 301 305 271 283 293 297 303 308 322 323 329 328 329 324
260 259 264 263 256 213 245 239 230 236 223 227 224 231 246 259 269 272 290 306 287 287 288 275 263 257 280 289 290 299 302 294 302 303 298 300 317 319 327 330 326 327 318
251 253 256 257 257 267 267 265 248 242 230 231 234 232 242 240 237 260 283 299 303 293 297 268 264 258 268 270 291 299 296 300 308 324 324 325 315 322 309 311 319 320 319
248 249 nan 261 261 258 250 225 233 239 243 243 241 241 238 243 253 245 244 259 286 284 302 304 305 270 247 239 234 276 288 298 306 311 316 316 314 311 320 321 326 328 330
nan nan nan nan nan nan nan nan 238 250 248 249 248 249 250 249 253 250 251 245 250 260 267 288 283 288 280 242 259 263 268 270 293 302 309 311 318 314 320 324 328 329 339
nan nan nan nan nan nan nan nan nan nan nan 260 261 256 256 254 243 242 246 251 259 266 272 279 292 297 304 285 244 256 268 285 285 291 299 306 313 318 322 326 329 330 nan
nan nan nan nan nan nan nan nan nan nan nan nan nan nan 254 248 237 240 244 245 259 270 272 279 289 291 286 289 287 270 272 275 279 290 301 306 307 311 316 321 328 332 nan
nan nan nan nan nan nan nan nan nan nan nan nan nan nan nan nan 241 244 239 239 254 256 258 263 277 283 281 274 275 275 275 276 283 290 294 293 292 305 310 317 323 327 nan
nan nan nan nan nan nan nan nan nan nan nan nan nan nan nan nan nan nan 251 251 247 252 254 257 261 272 275 270 266 268 275 278 273 277 283 289 291 300 309 314 318 323 nan
nan nan nan nan nan nan nan nan nan nan nan nan nan nan nan nan nan nan nan nan nan nan 258 260 264 271 274 277 274 270 273 275 277 281 285 292 297 300 306 311 311 313 nan
nan nan nan nan nan nan nan nan nan nan nan nan nan nan nan nan nan nan nan nan nan nan nan 263 269 273 271 270 272 271 266 266 271 277 283 288 290 295 301 303 305 306 nan
nan nan nan nan nan nan nan nan nan nan nan nan nan nan nan nan nan nan nan nan nan nan nan nan nan 262 264 262 262 261 261 263 264 266 273 281 286 291 294 296 299 301 304
nan nan nan nan nan nan nan nan nan nan nan nan nan nan nan nan nan nan nan nan nan nan nan nan nan nan 256 257 259 263 264 263 263 265 263 269 279 286 290 292 295 295 296
nan nan nan nan nan nan nan nan nan nan nan nan nan nan nan nan nan nan nan nan nan nan nan nan nan nan nan nan 260 261 262 261 266 266 262 268 271 276 280 286 289 291 293
nan nan nan nan nan nan nan nan nan nan nan nan nan nan nan nan nan nan nan nan nan nan nan nan nan nan nan nan nan nan nan nan 264 265 271 268 267 274 276 279 283 nan nan
nan nan nan nan nan nan nan nan nan nan nan nan nan nan nan nan nan nan nan nan nan nan nan nan nan nan nan nan nan nan nan nan nan nan nan 268 270 270 268 268 270 276 282